STARLINK-32455, 61632

Orbit data source: Space-Track

STARLINK-32455, 61632 is a payload satellite owned by SpaceX/Seattle (US) in LEO that was launched on Wed, 23 Oct 2024 UTC via an FALCON 9 launch vehicle from the Air Force Eastern Test Range (AFETR). Payload-class satellites include a variety of spacecraft equipped with specific instruments for various scientific and technological missions. These include communications satellites like Starlink; space stations such as the ISS; scientific satellites like the Hubble; Earth observation satellites from companies like Planet Labs, Umbra, and HawkEye 360; GPS; miniature CubeSats for education and research; and military/defense satellites.

Loading next visibility...
Identifier
61632, 2024-191M
Orbit
LEO
Country
Flag of USUS
Related business
Manufacturer
SpaceX/Seattle
Mission
Operational Commercial Communications
Bus & Motor
STARLINK V2M, Unknown motor
Mass
730 kg wet, ~700 kg dry
Launch date (UTC)
2024-10-23 (11 months ago)
Launch vehicle
FALCON 9
Launch site
Air Force Eastern Test Range (AFETR)
Object type
Payload
Rocket body
Debris
Shape & HBR
Box + 2 Pan, 14.5 m
Radar Cross Section
36.964 m², Large (>1 m²)

Expand to show TLE details & history
Last TLE update: 18 hours ago

TLE from 18 hours ago
0 STARLINK-32455
1 61632U 24191M   25260.87742951  .00001013  00000-0  46342-4 0  9991
2 61632  43.0034  54.2115 0000762 295.6570  64.4203 15.27572574 51067
Epoch: 2025-09-17T21:03Z
TLE epoch observation values (Epoch: 2025-09-17T21:03:29.909Z)
Latitude
-0.00002°
Longitude
101.28978°
Altitude
482.621 km
Speed
7.626 km/s
True Right ascension
03h 36m 50s
True Declination
0° 00' 00"
Sunlit
Object was in full shadow at epoch
Visualization orbit readout
Latitude
Unknown
Longitude
Unknown
Altitude
Unknown
Speed
Unknown
Apparent Right ascension
Unknown
Apparent Declination
Unknown
Sunlit
N/A
Visualization observer readout
Local Sidereal Time
07:28:08
Azimuth
Unknown
Elevation
Unknown
Doppler factor
Unknown
Orbital elements
Apogee altitude
485.539 km
Perigee altitude
484.493 km
Semi-major axis
6,863.153 km
Eccentricity
0.00008
Inclination
43.0034°
RAAN
54.2115°
Arg. of periapsis
295.657°
True anomaly
64.42818°
Mean anomaly
64.4203°
Eccentric anomaly
64.42424°
Mean motion
3.81731 °/min
Orbital period
94.31 mins
BSTAR
0.000046342
Loading maneuver chart data...
Computing Atmospheric mass density...
Loading historical data...
Loading historical data...
Loading historical data...
Loading historical data...
Loading historical data...
Loading historical data...
Loading historical data...

Documentation

Showing up to 5 results
|